Showing default

HADES-ICM, 63492

Orbit data source: Space-Track

HADES-ICM, 63492 is a Spanish payload satellite in SSO that was launched on Sat, 15 Mar 2025 UTC via an FALCON 9 launch vehicle from the Air Force Western Test Range (AFWTR). Payload-class satellites include a variety of spacecraft equipped with specific instruments for various scientific and technological missions. These include communications satellites like Starlink; space stations such as the ISS; scientific satellites like the Hubble; Earth observation satellites from companies like Planet Labs, Umbra, and HawkEye 360; GPS; miniature CubeSats for education and research; and military/defense satellites.

Loading next visibility...
Identifier
63492, 2025-052BN
Orbit
SSO
Country
Flag of ESES / SPN
Related business
Manufacturer
Hydra Space
Mission
Operational Amateur Communications
Bus & Motor
PQ 1.5U, Unknown motor
Mass
0.375 kg wet, 0.375 kg dry
Launch date (UTC)
2025-03-15 (7 months ago)
Launch vehicle
FALCON 9
Launch site
Air Force Western Test Range (AFWTR)
Object type
Payload
Rocket body
Debris
Shape & HBR
Box, 1.1 m
Radar Cross Section
0.006 m², Small (<0.1 m²)

Expand to show TLE details & history
Last TLE update: 1 day ago

TLE from 1 day ago
0 HADES-ICM
1 63492U 25052BN  25287.44268133  .00049191  00000-0  16243-2 0  9995
2 63492  97.4116 180.6528 0006797 300.4489  59.6081 15.31215611 32607
Epoch: 2025-10-14T10:37Z
TLE epoch observation values (Epoch: 2025-10-14T10:37:27.666Z)
Latitude
0.00002°
Longitude
-1.94352°
Altitude
472.936 km
Speed
7.631 km/s
True Right ascension
12h 02m 36s
True Declination
0° 00' 00"
Sunlit
Object was in daylight at epoch
Visualization orbit readout
Latitude
Unknown
Longitude
Unknown
Altitude
Unknown
Speed
Unknown
Apparent Right ascension
Unknown
Apparent Declination
Unknown
Sunlit
N/A
Visualization observer readout
Local Sidereal Time
05:46:46
Azimuth
Unknown
Elevation
Unknown
Doppler factor
Unknown
Orbital elements
Apogee altitude
473.79 km
Perigee altitude
464.481 km
Semi-major axis
6,847.272 km
Eccentricity
0.00068
Inclination
97.4116°
RAAN
180.6528°
Arg. of periapsis
300.4489°
True anomaly
59.67531°
Mean anomaly
59.6081°
Eccentric anomaly
59.6417°
Mean motion
3.8306 °/min
Orbital period
93.98 mins
BSTAR
0.0016243
Loading maneuver chart data...
Computing Atmospheric mass density...
Loading historical data...
Loading historical data...
Loading historical data...
Loading historical data...
Loading historical data...
Loading historical data...
Loading historical data...

Documentation

Showing up to 5 results
|